www.pogodaiklimat.ru

Погода и климат >> Архив погоды >> Россия >> Магаданская область >> Мыс Алевина


ПОГОДА на Мысе Алевина

  • Прогноз погоды на Мысе Алевина
  • Монитор погоды на Мысе Алевина
  • Климат города

АРХИВ ПОГОДЫ на Мысе Алевина

Время (UTC), дата Ветер
(напр.,м/с)
 
Видим.   Явления Облачность Т
(С)
Тd
(С)
f
(%)
Тe
(С)
Тes
(С)
Комфортность P
(гПа)
Po
(гПа)
Тmin
(С)
Tmax
(С)
R
(мм)
R24
(мм)
S
(см)
09 13.01 СЗ 12-14
{16}
2000 м метель {снег} 10/10 300 м
[Cb cap]
-11.9 -13.1 91 -24 -24 1006.6 998.1 -7.7 2
12 13.01 З 12-14
{15}
1000 м метель {снег} 10/10 300 м
[Cb cap]
-13.6 -15.1 88 -26 -26 1007.5 998.9
15 13.01 З 11-14
{15}
4000 м метель 10/10 300 м
[Cb cap]
-14.5 -16.4 85 -27 -27 1008.0 999.4
18 13.01 З 10-12
{14}
50 км {метель} 6/6 300 м
[St]
-16.2 -19.2 78 -29 -29 1009.1 1000.4
21 13.01 З 7-10
{12}
50 км 6/6 1000 м
[Sc]
-16.8 -19.5 80 -28 -28 1009.5 1000.7 -16.8 3 22
00 14.01 З 8-10
{11}
10 км слабый снег {метель} 8/8 1000 м
[Sc]
-17.4 -19.9 81 -29 -29 1009.7 1000.9 -17.4
03 14.01 СЗ 8-11
{12}
10 км слабый снег {метель} 10/10 1000 м
[Sc]
-17.4 -20.1 79 -29 -29 1008.5 999.7
06 14.01 СЗ 9-11
{12}
50 км {снег, метель} 8/8 1000 м
[Sc]
-18.2 -21.2 77 -31 -31 опасность
обморожения
1008.0 999.3
09 14.01 СЗ 8-10
{13}
50 км 3/3 1000 м
[Sc]
-18.9 -21.1 83 -31 -31 опасность
обморожения
1007.6 998.8 -16.7 0.4
12 14.01 СЗ 10-12
{13}
50 км ясно -19.2 -21.9 79 -33 -33 опасность
обморожения
1006.7 998.0
15 14.01 СЗ 8-10
{12}
50 км ясно -17.8 -20.8 77 -30 -30 1005.6 996.9
18 14.01 СЗ 9-10
{13}
50 км ясно -17.7 -21.9 70 -30 -30 1004.5 995.8
21 14.01 СЗ 8-10
{12}
50 км ясно -17.0 -21.5 68 -29 -29 1003.8 995.1 -19.3 22
00 15.01 СЗ 8-11
{11}
50 км 3/3 1000 м
[Sc]
-16.8 -20.2 75 -28 -28 1003.0 994.4
03 15.01 СЗ 8
{11}
50 км 1/1 1000 м
[Sc]
-16.4 -19.5 77 -28 -28 1002.0 993.3
06 15.01 СЗ 8
{11}
50 км 4/4 1000 м
[Sc]
-16.4 -19.3 78 -28 -28 1001.2 992.6
09 15.01 СВ 3 50 км ясно -19.7 -26.1 57 -27 -27 1001.3 992.5 -16.0
12 15.01 С 2 50 км 6/6 1000 м
[Sc]
-17.6 -21.6 71 -23 -23 1001.2 992.6
15 15.01 В 1 50 км 6/6 1000 м
[Sc]
-17.7 -21.7 71 -21 -21 1001.1 992.4
18 15.01 СВ 3 50 км ясно -19.0 -23.2 69 -26 -26 1001.2 992.5
21 15.01 СВ 4 50 км ясно -18.6 -22.6 71 -27 -27 1001.5 992.8 -20.4 22
00 16.01 СВ 3 50 км 6/6 1000 м
[Sc]
-17.9 -21.7 72 -25 -25 1002.0 993.3
03 16.01 С 2 50 км {снег} 4/4 1000 м
[Sc]
-15.5 -20.7 64 -21 -20 1002.1 993.4
06 16.01 СВ 5 50 км {снег} 3/3 1000 м
[Sc]
-17.2 -22.3 64 -27 -27 1002.9 994.2
09 16.01 СВ 2 50 км ясно -17.2 -21.4 70 -23 -23 1003.7 995.0 -15.5 0.0
12 16.01 Ю 2 50 км ясно -14.7 -16.3 88 -20 -20 1004.0 995.4
15 16.01 Ю 3 50 км 8/8 1000 м
[Sc]
-15.5 -17.3 86 -22 -22 1005.0 996.3
18 16.01 ЮВ 5 10 км слабый снег 10/10 1000 м
[Sc]
-16.1 -18.6 81 -25 -25 1006.0 997.3
21 16.01 СЗ 2 10 км слабый снег 10/10 1000 м
[Sc]
-16.4 -18.2 86 -22 -22 1007.3 998.6 -17.3 0.6 23
00 17.01 ЮЗ 1 10 км слабый снег 10/10 1000 м
[Sc]
-16.1 -18.0 85 -19 -19 1008.6 999.9
03 17.01 В 6 10 км слабый снег 10/10 1000 м
[Sc]
-15.9 -18.5 80 -26 -26 1009.4 1000.8
06 17.01 СВ 2 50 км {снег} 8/8 1000 м
[Sc]
-16.9 -19.1 83 -22 -22 1010.9 1002.2
09 17.01 СВ 4 50 км 3/3 1000 м
[Sc]
-19.4 -22.3 78 -28 -28 1012.6 1003.7 -15.6 1
12 17.01 СВ 2 50 км ясно -18.8 -21.9 76 -24 -24 1013.4 1004.6
15 17.01 СВ 3 50 км ясно -19.9 -23.1 76 -27 -27 1014.3 1005.5
18 17.01 СВ 4 50 км ясно -20.6 -24.9 68 -30 -30 1015.4 1006.5
21 17.01 СВ 4 50 км ясно -20.5 -24.7 69 -30 -30 1016.5 1007.6 -20.9 23
00 18.01 СВ 5 50 км 4/4 600 м
[Cu med, cong]
-19.2 -24.0 66 -29 -29 1017.2 1008.3 -21.0
03 18.01 СВ 5 50 км 5/5 600 м
[Cu med, cong]
-17.5 -23.5 59 -27 -27 1017.4 1008.6
06 18.01 СВ 5 50 км 8/8 1000 м
[Sc]
-18.2 -23.3 64 -28 -28 1017.9 1009.0
09 18.01 СВ 5 50 км 8/8 1000 м
[Sc]
-18.1 -23.3 64 -28 -28 1018.4 1009.6 -17.2
12 18.01 СВ 5 50 км 8/8 1000 м
[Sc]
-17.8 -22.3 68 -27 -27 1019.4 1010.6
15 18.01 СВ 4 50 км 8/8 1000 м
[Sc]
-16.8 -21.3 68 -25 -25 1019.4 1010.6
18 18.01 СВ 5 50 км 8/8 1000 м
[Sc]
-16.1 -21.6 63 -25 -25 1019.9 1011.1
21 18.01 СВ 5 50 км 3/3 1000 м
[Sc]
-17.9 -23.4 62 -27 -27 1020.1 1011.2 -19.1 23
00 19.01 СВ 3 50 км ясно -15.9 -22.6 56 -23 -22 1020.6 1011.8
03 19.01 С 2 50 км ясно -13.3 -21.6 50 -18 -17 1019.6 1010.9
06 19.01 С 2 50 км 3/3 1000 м
[Sc]
-13.8 -20.5 57 -19 -19 1019.7 1011.0
09 19.01 В 4 50 км ясно -12.6 -18.6 61 -20 -20 1020.4 1011.7 -12.6
12 19.01 В 10-13
{13}
50 км позёмок {метель} 6/6 1000 м
[Sc]
-10.4 -12.2 87 -21 -21 1020.2 1011.6
15 19.01 В 9-11
{13}
50 км {метель} 8/8 1000 м
[Sc]
-9.9 -11.3 89 -20 -20 1019.6 1011.0
18 19.01 В 11-13
{15}
50 км {метель} 3/3 1000 м
[Sc]
-10.9 -12.0 92 -22 -22 1019.5 1010.9
21 19.01 В 4
{13}
50 км 3/3 1000 м
[Sc]
-14.5 -16.0 88 -22 -22 1019.5 1010.8 -14.5 22
00 20.01 СВ 1 50 км 8/8 300 м
[St]
-12.9 -14.1 91 -15 -15 1018.1 1009.5 -15.3
03 20.01 З 1 50 км 10/10 300 м
[St]
-11.5 -12.7 91 -14 -14 1015.9 1007.3
06 20.01 З 2 50 км 10/10 300 м
[St]
-11.2 -12.8 88 -16 -16 1014.5 1005.9

 

Местоположение метеостанции Мыс Алевина (Магаданская область, Россия): широта 58.83 долгота 151.30 высота над уровнем моря 65 м.

В архиве по умолчанию представлена погода на Мысе Алевина за последнюю неделю. Архивные данные за месяц целиком и за предыдущие месяцы, начиная с января 2011 года, Вы можете получить, выбрав интересующий диапазон дат из раскрывающегося списка и нажав кнопку "Ввод!".

Внимание! Время в таблицах - всемирное. Для получения местного времени необходимо прибавить поправку, которая на Мысе Алевина равна 11 ч.

Смотрите также архив погоды в соседних городах и на ближайших метеорологических станциях:

Погода в Оле (Магаданская область, Россия) (81 км)
Погода в Нагаева (Магаданская область, Россия) (84 км)
Погода в Магадане (Магаданская область, Россия) (87 км)
Погода в Армани (Магаданская область, Россия) (115 км)
Погода на Мысе Братьев (Магаданская область, Россия) (119 км)
Погода на Остров Спафарьева (Магаданская область, Россия) (137 км)
Погода в Палатке (Магаданская область, Россия) (143 км)
Погода в Талоне (Магаданская область, Россия) (185 км)
Погода в Брохово (Магаданская область, Россия) (188 км)
Погода в Мадауне (Магаданская область, Россия) (200 км)

Пояснения к столбцам:

Ветер - указаны скорость ветра в м/с - средняя за 10 мин, порывы в срок и между сроками (в фигурных скобках) и направление, откуда дует ветер: С - северный, СВ - северо-восточный, В - восточный, ЮВ - юго-восточный, Ю - южный, ЮЗ - юго-западный, З - западный, СЗ - северо-западный.
Видимость - горизонтальная дальность видимости в метрах или километрах. При видимости от 1 до 10 км при отсутствии осадков обычно наблюдается дымка, при ухудшении видимости до 1 км и менее - туман. В сухую погоду видимость может ухудшаться дымом, пылью или мглою.
Явления - указаны атмосферные явления, наблюдавшиеся в срок или в последний час перед сроком; фигурными скобками обозначены явления, наблюдавшиеся между сроками (за 1-3 часа до срока); квадратными скобками обозначены град или гололедные отложения с указанием их диаметра в мм.
Облачность - указаны через наклонную черту общая и нижняя облачность в баллах и высота нижней границы облаков в метрах; квадратными скобками обозначены формы облаков: Ci - перистые, Cs - перисто-слоистые, Cc - перисто-кучевые, Ac - высококучевые, As - высокослоистые, Sc - слоисто-кучевые, Ns - слоисто-дождевые, Cu - кучевые, Cb - кучево-дождевые. Подробнее классификацию облаков см. в Атласе облаков (PDF).
T - Температура воздуха - температура, измеренная на высоте 2 м над землей.
Td - Температура точки росы - температура, при понижении до которой содержащийся в воздухе водяной пар достигнет насыщения.
f - Относительная влажность воздуха - влажноcть воздуха, измеренная на высоте 2 м над землей.
Te - Эффективная температура - температура, которую ощущает одетый по сезону человек в тени. Характеристика душности погоды. При расчете учитывается влияние влажности воздуха и скорости ветра на теплоощущения человека.
Tes - Эффективная температура на солнце - температура, которую ощущает человек, с поправкой на солнечный нагрев. Характеристика знойности погоды. Зависит от высоты солнца над горизонтом, облачности и скорости ветра. Ночью, в пасмурную погоду, а также при ветре 12 м/с и более поправка равна нулю.
P - Атмосферное давление - приведенное к уровню моря атмосферное давление.
Po - Атмосферное давление - измеренное на уровне метеостанции атмосферное давление.
Tmin - Минимальная температура - минимум температуры воздуха на высоте 2 м над землей.
Tmax - Максимальная температура - максимум температуры воздуха на высоте 2 м над землей.
R - Количество осадков - Количество выпавших осадков за период времени, мм. При наведении курсора мыши на число - период времени, за который выпало указанное количество осадков.
R24 - Количество осадков - Количество выпавших осадков за 24 часа, мм.
S - Снежный покров - Высота снежного покрова, см. При наведении курсора мыши на число - состояние снежного покрова и степень покрытия местности в баллах.